Index of /20260508/WXO-DD/model_rdps/10km/18/084
Name Last modified Size Description
Parent Directory -
20260508T18Z_MSC_RDPS_AbsoluteVorticity_IsbL-0250_RLatLon0.09_PT084H.grib2 2026-05-08 21:05 607K
20260508T18Z_MSC_RDPS_AbsoluteVorticity_IsbL-0500_RLatLon0.09_PT084H.grib2 2026-05-08 21:05 565K
20260508T18Z_MSC_RDPS_AbsoluteVorticity_IsbL-0700_RLatLon0.09_PT084H.grib2 2026-05-08 21:05 627K
20260508T18Z_MSC_RDPS_AbsoluteVorticity_IsbL-0850_RLatLon0.09_PT084H.grib2 2026-05-08 21:05 787K
20260508T18Z_MSC_RDPS_AirTemp_AGL-120m_RLatLon0.09_PT084H.grib2 2026-05-08 21:05 374K
20260508T18Z_MSC_RDPS_AirTemp_AGL-2m_RLatLon0.09_PT084H.grib2 2026-05-08 21:05 625K
20260508T18Z_MSC_RDPS_AirTemp_AGL-40m_RLatLon0.09_PT084H.grib2 2026-05-08 21:05 390K
20260508T18Z_MSC_RDPS_AirTemp_AGL-80m_RLatLon0.09_PT084H.grib2 2026-05-08 21:05 380K
20260508T18Z_MSC_RDPS_AirTemp_IsbL-0001_RLatLon0.09_PT084H.grib2 2026-05-08 21:05 228K
20260508T18Z_MSC_RDPS_AirTemp_IsbL-0005_RLatLon0.09_PT084H.grib2 2026-05-08 21:05 286K
20260508T18Z_MSC_RDPS_AirTemp_IsbL-0010_RLatLon0.09_PT084H.grib2 2026-05-08 21:05 386K
20260508T18Z_MSC_RDPS_AirTemp_IsbL-0020_RLatLon0.09_PT084H.grib2 2026-05-08 21:05 317K
20260508T18Z_MSC_RDPS_AirTemp_IsbL-0030_RLatLon0.09_PT084H.grib2 2026-05-08 21:05 342K
20260508T18Z_MSC_RDPS_AirTemp_IsbL-0050_RLatLon0.09_PT084H.grib2 2026-05-08 21:05 310K
20260508T18Z_MSC_RDPS_AirTemp_IsbL-0100_RLatLon0.09_PT084H.grib2 2026-05-08 21:05 425K
20260508T18Z_MSC_RDPS_AirTemp_IsbL-0150_RLatLon0.09_PT084H.grib2 2026-05-08 21:05 404K
20260508T18Z_MSC_RDPS_AirTemp_IsbL-0175_RLatLon0.09_PT084H.grib2 2026-05-08 21:05 396K
20260508T18Z_MSC_RDPS_AirTemp_IsbL-0200_RLatLon0.09_PT084H.grib2 2026-05-08 21:05 402K
20260508T18Z_MSC_RDPS_AirTemp_IsbL-0225_RLatLon0.09_PT084H.grib2 2026-05-08 21:05 409K
20260508T18Z_MSC_RDPS_AirTemp_IsbL-0250_RLatLon0.09_PT084H.grib2 2026-05-08 21:05 424K
20260508T18Z_MSC_RDPS_AirTemp_IsbL-0275_RLatLon0.09_PT084H.grib2 2026-05-08 21:05 404K
20260508T18Z_MSC_RDPS_AirTemp_IsbL-0300_RLatLon0.09_PT084H.grib2 2026-05-08 21:05 409K
20260508T18Z_MSC_RDPS_AirTemp_IsbL-0350_RLatLon0.09_PT084H.grib2 2026-05-08 21:05 419K
20260508T18Z_MSC_RDPS_AirTemp_IsbL-0400_RLatLon0.09_PT084H.grib2 2026-05-08 21:05 423K
20260508T18Z_MSC_RDPS_AirTemp_IsbL-0450_RLatLon0.09_PT084H.grib2 2026-05-08 21:05 431K
20260508T18Z_MSC_RDPS_AirTemp_IsbL-0500_RLatLon0.09_PT084H.grib2 2026-05-08 21:05 443K
20260508T18Z_MSC_RDPS_AirTemp_IsbL-0550_RLatLon0.09_PT084H.grib2 2026-05-08 21:05 462K
20260508T18Z_MSC_RDPS_AirTemp_IsbL-0600_RLatLon0.09_PT084H.grib2 2026-05-08 21:05 483K
20260508T18Z_MSC_RDPS_AirTemp_IsbL-0650_RLatLon0.09_PT084H.grib2 2026-05-08 21:05 498K
20260508T18Z_MSC_RDPS_AirTemp_IsbL-0700_RLatLon0.09_PT084H.grib2 2026-05-08 21:05 525K
20260508T18Z_MSC_RDPS_AirTemp_IsbL-0750_RLatLon0.09_PT084H.grib2 2026-05-08 21:05 526K
20260508T18Z_MSC_RDPS_AirTemp_IsbL-0800_RLatLon0.09_PT084H.grib2 2026-05-08 21:05 580K
20260508T18Z_MSC_RDPS_AirTemp_IsbL-0850_RLatLon0.09_PT084H.grib2 2026-05-08 21:05 628K
20260508T18Z_MSC_RDPS_AirTemp_IsbL-0875_RLatLon0.09_PT084H.grib2 2026-05-08 21:05 644K
20260508T18Z_MSC_RDPS_AirTemp_IsbL-0900_RLatLon0.09_PT084H.grib2 2026-05-08 21:05 525K
20260508T18Z_MSC_RDPS_AirTemp_IsbL-0925_RLatLon0.09_PT084H.grib2 2026-05-08 21:05 523K
20260508T18Z_MSC_RDPS_AirTemp_IsbL-0950_RLatLon0.09_PT084H.grib2 2026-05-08 21:05 528K
20260508T18Z_MSC_RDPS_AirTemp_IsbL-0970_RLatLon0.09_PT084H.grib2 2026-05-08 21:05 525K
20260508T18Z_MSC_RDPS_AirTemp_IsbL-0985_RLatLon0.09_PT084H.grib2 2026-05-08 21:05 514K
20260508T18Z_MSC_RDPS_AirTemp_IsbL-1000_RLatLon0.09_PT084H.grib2 2026-05-08 21:05 494K
20260508T18Z_MSC_RDPS_AirTemp_IsbL-1015_RLatLon0.09_PT084H.grib2 2026-05-08 21:05 497K
20260508T18Z_MSC_RDPS_Albedo_Sfc_RLatLon0.09_PT084H.grib2 2026-05-08 21:05 156K
20260508T18Z_MSC_RDPS_CAPE_Sfc_RLatLon0.09_PT084H.grib2 2026-05-08 21:05 1.6M
20260508T18Z_MSC_RDPS_CIN_Sfc_RLatLon0.09_PT084H.grib2 2026-05-08 21:05 1.3M
20260508T18Z_MSC_RDPS_CloudWater_EAtm_RLatLon0.09_PT084H.grib2 2026-05-08 21:05 231K
20260508T18Z_MSC_RDPS_ConvectivePrecip-Accum_Sfc_RLatLon0.09_PT084H.grib2 2026-05-08 21:05 1.4M
20260508T18Z_MSC_RDPS_DewPointDepression_AGL-2m_RLatLon0.09_PT084H.grib2 2026-05-08 21:05 398K
20260508T18Z_MSC_RDPS_DewPointDepression_IsbL-0001_RLatLon0.09_PT084H.grib2 2026-05-08 21:05 193
20260508T18Z_MSC_RDPS_DewPointDepression_IsbL-0005_RLatLon0.09_PT084H.grib2 2026-05-08 21:05 193
20260508T18Z_MSC_RDPS_DewPointDepression_IsbL-0010_RLatLon0.09_PT084H.grib2 2026-05-08 21:05 193
20260508T18Z_MSC_RDPS_DewPointDepression_IsbL-0020_RLatLon0.09_PT084H.grib2 2026-05-08 21:05 193
20260508T18Z_MSC_RDPS_DewPointDepression_IsbL-0030_RLatLon0.09_PT084H.grib2 2026-05-08 21:05 193
20260508T18Z_MSC_RDPS_DewPointDepression_IsbL-0050_RLatLon0.09_PT084H.grib2 2026-05-08 21:05 78K
20260508T18Z_MSC_RDPS_DewPointDepression_IsbL-0100_RLatLon0.09_PT084H.grib2 2026-05-08 21:05 110K
20260508T18Z_MSC_RDPS_DewPointDepression_IsbL-0150_RLatLon0.09_PT084H.grib2 2026-05-08 21:05 146K
20260508T18Z_MSC_RDPS_DewPointDepression_IsbL-0175_RLatLon0.09_PT084H.grib2 2026-05-08 21:05 168K
20260508T18Z_MSC_RDPS_DewPointDepression_IsbL-0200_RLatLon0.09_PT084H.grib2 2026-05-08 21:05 217K
20260508T18Z_MSC_RDPS_DewPointDepression_IsbL-0225_RLatLon0.09_PT084H.grib2 2026-05-08 21:05 258K
20260508T18Z_MSC_RDPS_DewPointDepression_IsbL-0250_RLatLon0.09_PT084H.grib2 2026-05-08 21:05 301K
20260508T18Z_MSC_RDPS_DewPointDepression_IsbL-0275_RLatLon0.09_PT084H.grib2 2026-05-08 21:05 308K
20260508T18Z_MSC_RDPS_DewPointDepression_IsbL-0300_RLatLon0.09_PT084H.grib2 2026-05-08 21:05 327K
20260508T18Z_MSC_RDPS_DewPointDepression_IsbL-0350_RLatLon0.09_PT084H.grib2 2026-05-08 21:05 335K
20260508T18Z_MSC_RDPS_DewPointDepression_IsbL-0400_RLatLon0.09_PT084H.grib2 2026-05-08 21:05 351K
20260508T18Z_MSC_RDPS_DewPointDepression_IsbL-0450_RLatLon0.09_PT084H.grib2 2026-05-08 21:05 361K
20260508T18Z_MSC_RDPS_DewPointDepression_IsbL-0500_RLatLon0.09_PT084H.grib2 2026-05-08 21:05 363K
20260508T18Z_MSC_RDPS_DewPointDepression_IsbL-0550_RLatLon0.09_PT084H.grib2 2026-05-08 21:05 374K
20260508T18Z_MSC_RDPS_DewPointDepression_IsbL-0600_RLatLon0.09_PT084H.grib2 2026-05-08 21:05 386K
20260508T18Z_MSC_RDPS_DewPointDepression_IsbL-0650_RLatLon0.09_PT084H.grib2 2026-05-08 21:05 392K
20260508T18Z_MSC_RDPS_DewPointDepression_IsbL-0700_RLatLon0.09_PT084H.grib2 2026-05-08 21:05 405K
20260508T18Z_MSC_RDPS_DewPointDepression_IsbL-0750_RLatLon0.09_PT084H.grib2 2026-05-08 21:05 423K
20260508T18Z_MSC_RDPS_DewPointDepression_IsbL-0800_RLatLon0.09_PT084H.grib2 2026-05-08 21:05 459K
20260508T18Z_MSC_RDPS_DewPointDepression_IsbL-0850_RLatLon0.09_PT084H.grib2 2026-05-08 21:05 470K
20260508T18Z_MSC_RDPS_DewPointDepression_IsbL-0875_RLatLon0.09_PT084H.grib2 2026-05-08 21:05 465K
20260508T18Z_MSC_RDPS_DewPointDepression_IsbL-0900_RLatLon0.09_PT084H.grib2 2026-05-08 21:05 456K
20260508T18Z_MSC_RDPS_DewPointDepression_IsbL-0925_RLatLon0.09_PT084H.grib2 2026-05-08 21:05 442K
20260508T18Z_MSC_RDPS_DewPointDepression_IsbL-0950_RLatLon0.09_PT084H.grib2 2026-05-08 21:05 438K
20260508T18Z_MSC_RDPS_DewPointDepression_IsbL-0970_RLatLon0.09_PT084H.grib2 2026-05-08 21:05 432K
20260508T18Z_MSC_RDPS_DewPointDepression_IsbL-0985_RLatLon0.09_PT084H.grib2 2026-05-08 21:05 428K
20260508T18Z_MSC_RDPS_DewPointDepression_IsbL-1000_RLatLon0.09_PT084H.grib2 2026-05-08 21:05 420K
20260508T18Z_MSC_RDPS_DewPointDepression_IsbL-1015_RLatLon0.09_PT084H.grib2 2026-05-08 21:05 407K
20260508T18Z_MSC_RDPS_DewPoint_AGL-2m_RLatLon0.09_PT084H.grib2 2026-05-08 21:05 387K
20260508T18Z_MSC_RDPS_DownwardLongwaveRadiationFlux-Accum_Sfc_RLatLon0.09_PT084H.grib2 2026-05-08 21:05 443K
20260508T18Z_MSC_RDPS_DownwardShortwaveRadiationFlux-Accum_NTAtm_RLatLon0.09_PT084H.grib2 2026-05-08 21:05 103K
20260508T18Z_MSC_RDPS_DownwardShortwaveRadiationFlux-Accum_Sfc_RLatLon0.09_PT084H.grib2 2026-05-08 21:05 656K
20260508T18Z_MSC_RDPS_FreezingRain-Accum12h_Sfc_RLatLon0.09_PT084H.grib2 2026-05-08 21:05 71K
20260508T18Z_MSC_RDPS_FreezingRain-Accum1h_Sfc_RLatLon0.09_PT084H.grib2 2026-05-08 21:05 33K
20260508T18Z_MSC_RDPS_FreezingRain-Accum24h_Sfc_RLatLon0.09_PT084H.grib2 2026-05-08 21:05 122K
20260508T18Z_MSC_RDPS_FreezingRain-Accum3h_Sfc_RLatLon0.09_PT084H.grib2 2026-05-08 21:05 43K
20260508T18Z_MSC_RDPS_FreezingRain-Accum6h_Sfc_RLatLon0.09_PT084H.grib2 2026-05-08 21:05 61K
20260508T18Z_MSC_RDPS_FreezingRain-Accum_Sfc_RLatLon0.09_PT084H.grib2 2026-05-08 21:05 213K
20260508T18Z_MSC_RDPS_GeopotentialHeight_IsbL-0001_RLatLon0.09_PT084H.grib2 2026-05-08 21:05 239K
20260508T18Z_MSC_RDPS_GeopotentialHeight_IsbL-0005_RLatLon0.09_PT084H.grib2 2026-05-08 21:05 301K
20260508T18Z_MSC_RDPS_GeopotentialHeight_IsbL-0010_RLatLon0.09_PT084H.grib2 2026-05-08 21:05 302K
20260508T18Z_MSC_RDPS_GeopotentialHeight_IsbL-0020_RLatLon0.09_PT084H.grib2 2026-05-08 21:05 304K
20260508T18Z_MSC_RDPS_GeopotentialHeight_IsbL-0030_RLatLon0.09_PT084H.grib2 2026-05-08 21:05 306K
20260508T18Z_MSC_RDPS_GeopotentialHeight_IsbL-0050_RLatLon0.09_PT084H.grib2 2026-05-08 21:05 306K
20260508T18Z_MSC_RDPS_GeopotentialHeight_IsbL-0100_RLatLon0.09_PT084H.grib2 2026-05-08 21:05 282K
20260508T18Z_MSC_RDPS_GeopotentialHeight_IsbL-0150_RLatLon0.09_PT084H.grib2 2026-05-08 21:05 224K
20260508T18Z_MSC_RDPS_GeopotentialHeight_IsbL-0175_RLatLon0.09_PT084H.grib2 2026-05-08 21:05 226K
20260508T18Z_MSC_RDPS_GeopotentialHeight_IsbL-0200_RLatLon0.09_PT084H.grib2 2026-05-08 21:05 228K
20260508T18Z_MSC_RDPS_GeopotentialHeight_IsbL-0225_RLatLon0.09_PT084H.grib2 2026-05-08 21:05 230K
20260508T18Z_MSC_RDPS_GeopotentialHeight_IsbL-0250_RLatLon0.09_PT084H.grib2 2026-05-08 21:05 232K
20260508T18Z_MSC_RDPS_GeopotentialHeight_IsbL-0275_RLatLon0.09_PT084H.grib2 2026-05-08 21:05 231K
20260508T18Z_MSC_RDPS_GeopotentialHeight_IsbL-0300_RLatLon0.09_PT084H.grib2 2026-05-08 21:05 231K
20260508T18Z_MSC_RDPS_GeopotentialHeight_IsbL-0350_RLatLon0.09_PT084H.grib2 2026-05-08 21:05 227K
20260508T18Z_MSC_RDPS_GeopotentialHeight_IsbL-0400_RLatLon0.09_PT084H.grib2 2026-05-08 21:05 296K
20260508T18Z_MSC_RDPS_GeopotentialHeight_IsbL-0450_RLatLon0.09_PT084H.grib2 2026-05-08 21:05 291K
20260508T18Z_MSC_RDPS_GeopotentialHeight_IsbL-0500_RLatLon0.09_PT084H.grib2 2026-05-08 21:05 286K
20260508T18Z_MSC_RDPS_GeopotentialHeight_IsbL-0550_RLatLon0.09_PT084H.grib2 2026-05-08 21:05 283K
20260508T18Z_MSC_RDPS_GeopotentialHeight_IsbL-0600_RLatLon0.09_PT084H.grib2 2026-05-08 21:05 252K
20260508T18Z_MSC_RDPS_GeopotentialHeight_IsbL-0650_RLatLon0.09_PT084H.grib2 2026-05-08 21:05 250K
20260508T18Z_MSC_RDPS_GeopotentialHeight_IsbL-0700_RLatLon0.09_PT084H.grib2 2026-05-08 21:05 250K
20260508T18Z_MSC_RDPS_GeopotentialHeight_IsbL-0750_RLatLon0.09_PT084H.grib2 2026-05-08 21:05 335K
20260508T18Z_MSC_RDPS_GeopotentialHeight_IsbL-0800_RLatLon0.09_PT084H.grib2 2026-05-08 21:05 344K
20260508T18Z_MSC_RDPS_GeopotentialHeight_IsbL-0850_RLatLon0.09_PT084H.grib2 2026-05-08 21:05 353K
20260508T18Z_MSC_RDPS_GeopotentialHeight_IsbL-0875_RLatLon0.09_PT084H.grib2 2026-05-08 21:05 353K
20260508T18Z_MSC_RDPS_GeopotentialHeight_IsbL-0900_RLatLon0.09_PT084H.grib2 2026-05-08 21:05 357K
20260508T18Z_MSC_RDPS_GeopotentialHeight_IsbL-0925_RLatLon0.09_PT084H.grib2 2026-05-08 21:05 360K
20260508T18Z_MSC_RDPS_GeopotentialHeight_IsbL-0950_RLatLon0.09_PT084H.grib2 2026-05-08 21:05 364K
20260508T18Z_MSC_RDPS_GeopotentialHeight_IsbL-0970_RLatLon0.09_PT084H.grib2 2026-05-08 21:05 368K
20260508T18Z_MSC_RDPS_GeopotentialHeight_IsbL-0985_RLatLon0.09_PT084H.grib2 2026-05-08 21:05 376K
20260508T18Z_MSC_RDPS_GeopotentialHeight_IsbL-1000_RLatLon0.09_PT084H.grib2 2026-05-08 21:05 388K
20260508T18Z_MSC_RDPS_GeopotentialHeight_IsbL-1015_RLatLon0.09_PT084H.grib2 2026-05-08 21:05 402K
20260508T18Z_MSC_RDPS_HighLowPressure_MSL_RLatLon0.09_PT084H.json 2026-05-08 20:57 22K
20260508T18Z_MSC_RDPS_Humidex_Sfc_RLatLon0.09_PT084H.grib2 2026-05-08 21:05 2.4M
20260508T18Z_MSC_RDPS_IcePellets-Accum12h_Sfc_RLatLon0.09_PT084H.grib2 2026-05-08 21:05 24K
20260508T18Z_MSC_RDPS_IcePellets-Accum1h_Sfc_RLatLon0.09_PT084H.grib2 2026-05-08 21:05 15K
20260508T18Z_MSC_RDPS_IcePellets-Accum24h_Sfc_RLatLon0.09_PT084H.grib2 2026-05-08 21:05 41K
20260508T18Z_MSC_RDPS_IcePellets-Accum3h_Sfc_RLatLon0.09_PT084H.grib2 2026-05-08 21:05 17K
20260508T18Z_MSC_RDPS_IcePellets-Accum6h_Sfc_RLatLon0.09_PT084H.grib2 2026-05-08 21:05 19K
20260508T18Z_MSC_RDPS_IcePellets-Accum_Sfc_RLatLon0.09_PT084H.grib2 2026-05-08 21:05 53K
20260508T18Z_MSC_RDPS_KIndex_Sfc_RLatLon0.09_PT084H.grib2 2026-05-08 21:05 2.5M
20260508T18Z_MSC_RDPS_LatentHeatNetFlux_Sfc_RLatLon0.09_PT084H.grib2 2026-05-08 21:05 322K
20260508T18Z_MSC_RDPS_LiftedIndex-MU-VT_IsbL-0500_RLatLon0.09_PT084H.grib2 2026-05-08 21:05 2.4M
20260508T18Z_MSC_RDPS_NetLongwaveRadiationFlux-Accum_Sfc_RLatLon0.09_PT084H.grib2 2026-05-08 21:05 456K
20260508T18Z_MSC_RDPS_NetShortwaveRadiationFlux-Accum_Sfc_RLatLon0.09_PT084H.grib2 2026-05-08 21:05 519K
20260508T18Z_MSC_RDPS_PlanetaryBoundaryLayerHeight_Sfc_RLatLon0.09_PT084H.grib2 2026-05-08 21:05 1.1M
20260508T18Z_MSC_RDPS_Precip-Accum12h_Sfc_RLatLon0.09_PT084H.grib2 2026-05-08 21:05 1.7M
20260508T18Z_MSC_RDPS_Precip-Accum1h_Sfc_RLatLon0.09_PT084H.grib2 2026-05-08 21:05 1.2M
20260508T18Z_MSC_RDPS_Precip-Accum24h_Sfc_RLatLon0.09_PT084H.grib2 2026-05-08 21:05 2.0M
20260508T18Z_MSC_RDPS_Precip-Accum3h_Sfc_RLatLon0.09_PT084H.grib2 2026-05-08 21:05 1.4M
20260508T18Z_MSC_RDPS_Precip-Accum6h_Sfc_RLatLon0.09_PT084H.grib2 2026-05-08 21:05 1.5M
20260508T18Z_MSC_RDPS_Precip-Accum_Sfc_RLatLon0.09_PT084H.grib2 2026-05-08 21:05 2.1M
20260508T18Z_MSC_RDPS_PrecipRate_Sfc_RLatLon0.09_PT084H.grib2 2026-05-08 21:05 185K
20260508T18Z_MSC_RDPS_PrecipType-Instant_Sfc_RLatLon0.09_PT084H.grib2 2026-05-08 21:05 623K
20260508T18Z_MSC_RDPS_Pressure-Trend3h_Sfc_RLatLon0.09_PT084H.grib2 2026-05-08 21:05 1.2M
20260508T18Z_MSC_RDPS_Pressure_MSL_RLatLon0.09_PT084H.grib2 2026-05-08 21:05 320K
20260508T18Z_MSC_RDPS_Pressure_PVU-1.5_RLatLon0.09_PT084H.grib2 2026-05-08 21:05 2.5M
20260508T18Z_MSC_RDPS_Pressure_PVU-1_RLatLon0.09_PT084H.grib2 2026-05-08 21:05 2.4M
20260508T18Z_MSC_RDPS_Pressure_PVU-2_RLatLon0.09_PT084H.grib2 2026-05-08 21:05 2.4M
20260508T18Z_MSC_RDPS_Pressure_Sfc_RLatLon0.09_PT084H.grib2 2026-05-08 21:05 497K
20260508T18Z_MSC_RDPS_RadiativeTemp_Sfc_RLatLon0.09_PT084H.grib2 2026-05-08 21:05 394K
20260508T18Z_MSC_RDPS_Rain-Accum12h_Sfc_RLatLon0.09_PT084H.grib2 2026-05-08 21:05 1.3M
20260508T18Z_MSC_RDPS_Rain-Accum1h_Sfc_RLatLon0.09_PT084H.grib2 2026-05-08 21:05 680K
20260508T18Z_MSC_RDPS_Rain-Accum24h_Sfc_RLatLon0.09_PT084H.grib2 2026-05-08 21:05 1.6M
20260508T18Z_MSC_RDPS_Rain-Accum3h_Sfc_RLatLon0.09_PT084H.grib2 2026-05-08 21:05 810K
20260508T18Z_MSC_RDPS_Rain-Accum6h_Sfc_RLatLon0.09_PT084H.grib2 2026-05-08 21:05 1.1M
20260508T18Z_MSC_RDPS_Rain-Accum_Sfc_RLatLon0.09_PT084H.grib2 2026-05-08 21:05 1.8M
20260508T18Z_MSC_RDPS_RelativeHumidity_AGL-2m_RLatLon0.09_PT084H.grib2 2026-05-08 21:05 1.0M
20260508T18Z_MSC_RDPS_RelativeHumidity_IsbL-0010_RLatLon0.09_PT084H.grib2 2026-05-08 21:05 555K
20260508T18Z_MSC_RDPS_RelativeHumidity_IsbL-0020_RLatLon0.09_PT084H.grib2 2026-05-08 21:05 619K
20260508T18Z_MSC_RDPS_RelativeHumidity_IsbL-0030_RLatLon0.09_PT084H.grib2 2026-05-08 21:05 616K
20260508T18Z_MSC_RDPS_RelativeHumidity_IsbL-0050_RLatLon0.09_PT084H.grib2 2026-05-08 21:05 352K
20260508T18Z_MSC_RDPS_RelativeHumidity_IsbL-0100_RLatLon0.09_PT084H.grib2 2026-05-08 21:05 275K
20260508T18Z_MSC_RDPS_RelativeHumidity_IsbL-0150_RLatLon0.09_PT084H.grib2 2026-05-08 21:05 411K
20260508T18Z_MSC_RDPS_RelativeHumidity_IsbL-0175_RLatLon0.09_PT084H.grib2 2026-05-08 21:05 466K
20260508T18Z_MSC_RDPS_RelativeHumidity_IsbL-0200_RLatLon0.09_PT084H.grib2 2026-05-08 21:05 538K
20260508T18Z_MSC_RDPS_RelativeHumidity_IsbL-0225_RLatLon0.09_PT084H.grib2 2026-05-08 21:05 611K
20260508T18Z_MSC_RDPS_RelativeHumidity_IsbL-0250_RLatLon0.09_PT084H.grib2 2026-05-08 21:05 691K
20260508T18Z_MSC_RDPS_RelativeHumidity_IsbL-0275_RLatLon0.09_PT084H.grib2 2026-05-08 21:05 720K
20260508T18Z_MSC_RDPS_RelativeHumidity_IsbL-0300_RLatLon0.09_PT084H.grib2 2026-05-08 21:05 768K
20260508T18Z_MSC_RDPS_RelativeHumidity_IsbL-0350_RLatLon0.09_PT084H.grib2 2026-05-08 21:05 788K
20260508T18Z_MSC_RDPS_RelativeHumidity_IsbL-0400_RLatLon0.09_PT084H.grib2 2026-05-08 21:05 808K
20260508T18Z_MSC_RDPS_RelativeHumidity_IsbL-0450_RLatLon0.09_PT084H.grib2 2026-05-08 21:05 820K
20260508T18Z_MSC_RDPS_RelativeHumidity_IsbL-0500_RLatLon0.09_PT084H.grib2 2026-05-08 21:05 822K
20260508T18Z_MSC_RDPS_RelativeHumidity_IsbL-0550_RLatLon0.09_PT084H.grib2 2026-05-08 21:05 850K
20260508T18Z_MSC_RDPS_RelativeHumidity_IsbL-0600_RLatLon0.09_PT084H.grib2 2026-05-08 21:05 861K
20260508T18Z_MSC_RDPS_RelativeHumidity_IsbL-0650_RLatLon0.09_PT084H.grib2 2026-05-08 21:05 876K
20260508T18Z_MSC_RDPS_RelativeHumidity_IsbL-0700_RLatLon0.09_PT084H.grib2 2026-05-08 21:05 900K
20260508T18Z_MSC_RDPS_RelativeHumidity_IsbL-0750_RLatLon0.09_PT084H.grib2 2026-05-08 21:05 946K
20260508T18Z_MSC_RDPS_RelativeHumidity_IsbL-0800_RLatLon0.09_PT084H.grib2 2026-05-08 21:05 1.0M
20260508T18Z_MSC_RDPS_RelativeHumidity_IsbL-0850_RLatLon0.09_PT084H.grib2 2026-05-08 21:05 1.0M
20260508T18Z_MSC_RDPS_RelativeHumidity_IsbL-0875_RLatLon0.09_PT084H.grib2 2026-05-08 21:05 1.0M
20260508T18Z_MSC_RDPS_RelativeHumidity_IsbL-0900_RLatLon0.09_PT084H.grib2 2026-05-08 21:05 1.1M
20260508T18Z_MSC_RDPS_RelativeHumidity_IsbL-0925_RLatLon0.09_PT084H.grib2 2026-05-08 21:05 1.0M
20260508T18Z_MSC_RDPS_RelativeHumidity_IsbL-0950_RLatLon0.09_PT084H.grib2 2026-05-08 21:05 1.1M
20260508T18Z_MSC_RDPS_RelativeHumidity_IsbL-0970_RLatLon0.09_PT084H.grib2 2026-05-08 21:05 1.0M
20260508T18Z_MSC_RDPS_RelativeHumidity_IsbL-0985_RLatLon0.09_PT084H.grib2 2026-05-08 21:05 1.0M
20260508T18Z_MSC_RDPS_RelativeHumidity_IsbL-1000_RLatLon0.09_PT084H.grib2 2026-05-08 21:05 1.0M
20260508T18Z_MSC_RDPS_RelativeHumidity_IsbL-1015_RLatLon0.09_PT084H.grib2 2026-05-08 21:05 1.0M
20260508T18Z_MSC_RDPS_Runoff-Accum_Sfc_RLatLon0.09_PT084H.grib2 2026-05-08 21:05 58K
20260508T18Z_MSC_RDPS_SWEATIndex_Sfc_RLatLon0.09_PT084H.grib2 2026-05-08 21:05 2.5M
20260508T18Z_MSC_RDPS_SeeingIndex_EAtm_RLatLon0.09_PT084H.grib2 2026-05-08 21:05 1.1M
20260508T18Z_MSC_RDPS_SensibleHeatNetFlux_Sfc_RLatLon0.09_PT084H.grib2 2026-05-08 21:05 286K
20260508T18Z_MSC_RDPS_ShowalterIndex_IsbL-0500_RLatLon0.09_PT084H.grib2 2026-05-08 21:05 2.6M
20260508T18Z_MSC_RDPS_SkyTransparencyIndex_EAtm_RLatLon0.09_PT084H.grib2 2026-05-08 21:05 701K
20260508T18Z_MSC_RDPS_Snow-Accum12h_Sfc_RLatLon0.09_PT084H.grib2 2026-05-08 21:05 558K
20260508T18Z_MSC_RDPS_Snow-Accum1h_Sfc_RLatLon0.09_PT084H.grib2 2026-05-08 21:05 460K
20260508T18Z_MSC_RDPS_Snow-Accum24h_Sfc_RLatLon0.09_PT084H.grib2 2026-05-08 21:05 634K
20260508T18Z_MSC_RDPS_Snow-Accum3h_Sfc_RLatLon0.09_PT084H.grib2 2026-05-08 21:05 462K
20260508T18Z_MSC_RDPS_Snow-Accum6h_Sfc_RLatLon0.09_PT084H.grib2 2026-05-08 21:05 511K
20260508T18Z_MSC_RDPS_Snow-Accum_Sfc_RLatLon0.09_PT084H.grib2 2026-05-08 21:05 696K
20260508T18Z_MSC_RDPS_SnowDensity_Sfc_RLatLon0.09_PT084H.grib2 2026-05-08 21:05 170K
20260508T18Z_MSC_RDPS_SnowDepth_Sfc_RLatLon0.09_PT084H.grib2 2026-05-08 21:05 612K
20260508T18Z_MSC_RDPS_SoilTemp_DBS-0to10cm_RLatLon0.09_PT084H.grib2 2026-05-08 21:05 246K
20260508T18Z_MSC_RDPS_SoilTemp_Sfc_RLatLon0.09_PT084H.grib2 2026-05-08 21:05 282K
20260508T18Z_MSC_RDPS_SoilVolumetricIceContent_Sfc_RLatLon0.09_PT084H.grib2 2026-05-08 21:05 139K
20260508T18Z_MSC_RDPS_SoilVolumetricWaterContent_DBS-0to10cm_RLatLon0.09_PT084H.grib2 2026-05-08 21:05 297K
20260508T18Z_MSC_RDPS_SoilVolumetricWaterContent_DBS-0to1cm_RLatLon0.09_PT084H.grib2 2026-05-08 21:05 349K
20260508T18Z_MSC_RDPS_SpecificHumidity_AGL-120m_RLatLon0.09_PT084H.grib2 2026-05-08 21:05 497K
20260508T18Z_MSC_RDPS_SpecificHumidity_AGL-2m_RLatLon0.09_PT084H.grib2 2026-05-08 21:05 666K
20260508T18Z_MSC_RDPS_SpecificHumidity_AGL-40m_RLatLon0.09_PT084H.grib2 2026-05-08 21:05 502K
20260508T18Z_MSC_RDPS_SpecificHumidity_AGL-80m_RLatLon0.09_PT084H.grib2 2026-05-08 21:05 498K
20260508T18Z_MSC_RDPS_SpecificHumidity_IsbL-0001_RLatLon0.09_PT084H.grib2 2026-05-08 21:05 354K
20260508T18Z_MSC_RDPS_SpecificHumidity_IsbL-0005_RLatLon0.09_PT084H.grib2 2026-05-08 21:05 356K
20260508T18Z_MSC_RDPS_SpecificHumidity_IsbL-0010_RLatLon0.09_PT084H.grib2 2026-05-08 21:05 382K
20260508T18Z_MSC_RDPS_SpecificHumidity_IsbL-0020_RLatLon0.09_PT084H.grib2 2026-05-08 21:05 475K
20260508T18Z_MSC_RDPS_SpecificHumidity_IsbL-0030_RLatLon0.09_PT084H.grib2 2026-05-08 21:05 356K
20260508T18Z_MSC_RDPS_SpecificHumidity_IsbL-0050_RLatLon0.09_PT084H.grib2 2026-05-08 21:05 464K
20260508T18Z_MSC_RDPS_SpecificHumidity_IsbL-0100_RLatLon0.09_PT084H.grib2 2026-05-08 21:05 504K
20260508T18Z_MSC_RDPS_SpecificHumidity_IsbL-0150_RLatLon0.09_PT084H.grib2 2026-05-08 21:05 455K
20260508T18Z_MSC_RDPS_SpecificHumidity_IsbL-0175_RLatLon0.09_PT084H.grib2 2026-05-08 21:05 431K
20260508T18Z_MSC_RDPS_SpecificHumidity_IsbL-0200_RLatLon0.09_PT084H.grib2 2026-05-08 21:05 467K
20260508T18Z_MSC_RDPS_SpecificHumidity_IsbL-0225_RLatLon0.09_PT084H.grib2 2026-05-08 21:05 456K
20260508T18Z_MSC_RDPS_SpecificHumidity_IsbL-0250_RLatLon0.09_PT084H.grib2 2026-05-08 21:05 522K
20260508T18Z_MSC_RDPS_SpecificHumidity_IsbL-0275_RLatLon0.09_PT084H.grib2 2026-05-08 21:05 483K
20260508T18Z_MSC_RDPS_SpecificHumidity_IsbL-0300_RLatLon0.09_PT084H.grib2 2026-05-08 21:05 586K
20260508T18Z_MSC_RDPS_SpecificHumidity_IsbL-0350_RLatLon0.09_PT084H.grib2 2026-05-08 21:05 558K
20260508T18Z_MSC_RDPS_SpecificHumidity_IsbL-0400_RLatLon0.09_PT084H.grib2 2026-05-08 21:05 545K
20260508T18Z_MSC_RDPS_SpecificHumidity_IsbL-0450_RLatLon0.09_PT084H.grib2 2026-05-08 21:05 603K
20260508T18Z_MSC_RDPS_SpecificHumidity_IsbL-0500_RLatLon0.09_PT084H.grib2 2026-05-08 21:05 537K
20260508T18Z_MSC_RDPS_SpecificHumidity_IsbL-0550_RLatLon0.09_PT084H.grib2 2026-05-08 21:05 611K
20260508T18Z_MSC_RDPS_SpecificHumidity_IsbL-0600_RLatLon0.09_PT084H.grib2 2026-05-08 21:05 666K
20260508T18Z_MSC_RDPS_SpecificHumidity_IsbL-0650_RLatLon0.09_PT084H.grib2 2026-05-08 21:05 583K
20260508T18Z_MSC_RDPS_SpecificHumidity_IsbL-0700_RLatLon0.09_PT084H.grib2 2026-05-08 21:05 628K
20260508T18Z_MSC_RDPS_SpecificHumidity_IsbL-0750_RLatLon0.09_PT084H.grib2 2026-05-08 21:05 683K
20260508T18Z_MSC_RDPS_SpecificHumidity_IsbL-0800_RLatLon0.09_PT084H.grib2 2026-05-08 21:05 769K
20260508T18Z_MSC_RDPS_SpecificHumidity_IsbL-0850_RLatLon0.09_PT084H.grib2 2026-05-08 21:05 822K
20260508T18Z_MSC_RDPS_SpecificHumidity_IsbL-0875_RLatLon0.09_PT084H.grib2 2026-05-08 21:05 838K
20260508T18Z_MSC_RDPS_SpecificHumidity_IsbL-0900_RLatLon0.09_PT084H.grib2 2026-05-08 21:05 850K
20260508T18Z_MSC_RDPS_SpecificHumidity_IsbL-0925_RLatLon0.09_PT084H.grib2 2026-05-08 21:05 710K
20260508T18Z_MSC_RDPS_SpecificHumidity_IsbL-0950_RLatLon0.09_PT084H.grib2 2026-05-08 21:05 712K
20260508T18Z_MSC_RDPS_SpecificHumidity_IsbL-0970_RLatLon0.09_PT084H.grib2 2026-05-08 21:05 708K
20260508T18Z_MSC_RDPS_SpecificHumidity_IsbL-0985_RLatLon0.09_PT084H.grib2 2026-05-08 21:05 700K
20260508T18Z_MSC_RDPS_SpecificHumidity_IsbL-1000_RLatLon0.09_PT084H.grib2 2026-05-08 21:05 689K
20260508T18Z_MSC_RDPS_SpecificHumidity_IsbL-1015_RLatLon0.09_PT084H.grib2 2026-05-08 21:05 679K
20260508T18Z_MSC_RDPS_SpecificHumidity_Sfc_RLatLon0.09_PT084H.grib2 2026-05-08 21:05 313K
20260508T18Z_MSC_RDPS_StormRelativeHelicity_EtaL-10000_RLatLon0.09_PT084H.grib2 2026-05-08 21:05 1.1M
20260508T18Z_MSC_RDPS_StormSeverityIndex_EtaL-10000_RLatLon0.09_PT084H.grib2 2026-05-08 21:05 1.2M
20260508T18Z_MSC_RDPS_Thickness_IsbL-0850to0700_RLatLon0.09_PT084H.grib2 2026-05-08 21:05 246K
20260508T18Z_MSC_RDPS_Thickness_IsbL-1000to0500_RLatLon0.09_PT084H.grib2 2026-05-08 21:05 192K
20260508T18Z_MSC_RDPS_Thickness_IsbL-1000to0850_RLatLon0.09_PT084H.grib2 2026-05-08 21:05 257K
20260508T18Z_MSC_RDPS_TotalCloudCover_Sfc_RLatLon0.09_PT084H.grib2 2026-05-08 21:05 672K
20260508T18Z_MSC_RDPS_TotalTotalsIndex_Sfc_RLatLon0.09_PT084H.grib2 2026-05-08 21:05 2.5M
20260508T18Z_MSC_RDPS_UVIndex-ClearSky_Sfc_RLatLon0.09_PT084H.grib2 2026-05-08 21:05 139K
20260508T18Z_MSC_RDPS_UVIndex_Sfc_RLatLon0.09_PT084H.grib2 2026-05-08 21:05 237K
20260508T18Z_MSC_RDPS_UpwardLongwaveRadiationFlux_NTAtm_RLatLon0.09_PT084H.grib2 2026-05-08 21:05 488K
20260508T18Z_MSC_RDPS_UpwardShortwaveRadiationFlux_NTAtm_RLatLon0.09_PT084H.grib2 2026-05-08 21:05 197K
20260508T18Z_MSC_RDPS_VerticalVelocity_IsbL-0250_RLatLon0.09_PT084H.grib2 2026-05-08 21:05 536K
20260508T18Z_MSC_RDPS_VerticalVelocity_IsbL-0500_RLatLon0.09_PT084H.grib2 2026-05-08 21:05 534K
20260508T18Z_MSC_RDPS_VerticalVelocity_IsbL-0700_RLatLon0.09_PT084H.grib2 2026-05-08 21:05 590K
20260508T18Z_MSC_RDPS_VerticalVelocity_IsbL-0850_RLatLon0.09_PT084H.grib2 2026-05-08 21:05 697K
20260508T18Z_MSC_RDPS_VerticalWindShear_EtaL-6500_RLatLon0.09_PT084H.grib2 2026-05-08 21:05 1.2M
20260508T18Z_MSC_RDPS_WindChill_Sfc_RLatLon0.09_PT084H.grib2 2026-05-08 21:05 1.2M
20260508T18Z_MSC_RDPS_WindDir_AGL-10m_RLatLon0.09_PT084H.grib2 2026-05-08 21:05 1.0M
20260508T18Z_MSC_RDPS_WindDir_AGL-120m_RLatLon0.09_PT084H.grib2 2026-05-08 21:05 614K
20260508T18Z_MSC_RDPS_WindDir_AGL-40m_RLatLon0.09_PT084H.grib2 2026-05-08 21:05 648K
20260508T18Z_MSC_RDPS_WindDir_AGL-80m_RLatLon0.09_PT084H.grib2 2026-05-08 21:05 627K
20260508T18Z_MSC_RDPS_WindDir_IsbL-0001_RLatLon0.09_PT084H.grib2 2026-05-08 21:05 273K
20260508T18Z_MSC_RDPS_WindDir_IsbL-0005_RLatLon0.09_PT084H.grib2 2026-05-08 21:05 367K
20260508T18Z_MSC_RDPS_WindDir_IsbL-0010_RLatLon0.09_PT084H.grib2 2026-05-08 21:05 397K
20260508T18Z_MSC_RDPS_WindDir_IsbL-0020_RLatLon0.09_PT084H.grib2 2026-05-08 21:05 438K
20260508T18Z_MSC_RDPS_WindDir_IsbL-0030_RLatLon0.09_PT084H.grib2 2026-05-08 21:05 448K
20260508T18Z_MSC_RDPS_WindDir_IsbL-0050_RLatLon0.09_PT084H.grib2 2026-05-08 21:05 445K
20260508T18Z_MSC_RDPS_WindDir_IsbL-0100_RLatLon0.09_PT084H.grib2 2026-05-08 21:05 429K
20260508T18Z_MSC_RDPS_WindDir_IsbL-0150_RLatLon0.09_PT084H.grib2 2026-05-08 21:05 425K
20260508T18Z_MSC_RDPS_WindDir_IsbL-0175_RLatLon0.09_PT084H.grib2 2026-05-08 21:05 442K
20260508T18Z_MSC_RDPS_WindDir_IsbL-0200_RLatLon0.09_PT084H.grib2 2026-05-08 21:05 453K
20260508T18Z_MSC_RDPS_WindDir_IsbL-0225_RLatLon0.09_PT084H.grib2 2026-05-08 21:05 457K
20260508T18Z_MSC_RDPS_WindDir_IsbL-0250_RLatLon0.09_PT084H.grib2 2026-05-08 21:05 456K
20260508T18Z_MSC_RDPS_WindDir_IsbL-0275_RLatLon0.09_PT084H.grib2 2026-05-08 21:05 475K
20260508T18Z_MSC_RDPS_WindDir_IsbL-0300_RLatLon0.09_PT084H.grib2 2026-05-08 21:05 476K
20260508T18Z_MSC_RDPS_WindDir_IsbL-0350_RLatLon0.09_PT084H.grib2 2026-05-08 21:05 509K
20260508T18Z_MSC_RDPS_WindDir_IsbL-0400_RLatLon0.09_PT084H.grib2 2026-05-08 21:05 533K
20260508T18Z_MSC_RDPS_WindDir_IsbL-0450_RLatLon0.09_PT084H.grib2 2026-05-08 21:05 554K
20260508T18Z_MSC_RDPS_WindDir_IsbL-0500_RLatLon0.09_PT084H.grib2 2026-05-08 21:05 569K
20260508T18Z_MSC_RDPS_WindDir_IsbL-0550_RLatLon0.09_PT084H.grib2 2026-05-08 21:05 578K
20260508T18Z_MSC_RDPS_WindDir_IsbL-0600_RLatLon0.09_PT084H.grib2 2026-05-08 21:05 598K
20260508T18Z_MSC_RDPS_WindDir_IsbL-0650_RLatLon0.09_PT084H.grib2 2026-05-08 21:05 633K
20260508T18Z_MSC_RDPS_WindDir_IsbL-0700_RLatLon0.09_PT084H.grib2 2026-05-08 21:05 670K
20260508T18Z_MSC_RDPS_WindDir_IsbL-0750_RLatLon0.09_PT084H.grib2 2026-05-08 21:05 722K
20260508T18Z_MSC_RDPS_WindDir_IsbL-0800_RLatLon0.09_PT084H.grib2 2026-05-08 21:05 800K
20260508T18Z_MSC_RDPS_WindDir_IsbL-0850_RLatLon0.09_PT084H.grib2 2026-05-08 21:05 871K
20260508T18Z_MSC_RDPS_WindDir_IsbL-0875_RLatLon0.09_PT084H.grib2 2026-05-08 21:05 892K
20260508T18Z_MSC_RDPS_WindDir_IsbL-0900_RLatLon0.09_PT084H.grib2 2026-05-08 21:05 910K
20260508T18Z_MSC_RDPS_WindDir_IsbL-0925_RLatLon0.09_PT084H.grib2 2026-05-08 21:05 926K
20260508T18Z_MSC_RDPS_WindDir_IsbL-0950_RLatLon0.09_PT084H.grib2 2026-05-08 21:05 925K
20260508T18Z_MSC_RDPS_WindDir_IsbL-0970_RLatLon0.09_PT084H.grib2 2026-05-08 21:05 929K
20260508T18Z_MSC_RDPS_WindDir_IsbL-0985_RLatLon0.09_PT084H.grib2 2026-05-08 21:05 936K
20260508T18Z_MSC_RDPS_WindDir_IsbL-1000_RLatLon0.09_PT084H.grib2 2026-05-08 21:05 955K
20260508T18Z_MSC_RDPS_WindDir_IsbL-1015_RLatLon0.09_PT084H.grib2 2026-05-08 21:05 1.0M
20260508T18Z_MSC_RDPS_WindGust-Max_AGL-10m_RLatLon0.09_PT084H.grib2 2026-05-08 21:05 1.0M
20260508T18Z_MSC_RDPS_WindGust-Min_AGL-10m_RLatLon0.09_PT084H.grib2 2026-05-08 21:05 972K
20260508T18Z_MSC_RDPS_WindGust_AGL-10m_RLatLon0.09_PT084H.grib2 2026-05-08 21:05 1.0M
20260508T18Z_MSC_RDPS_WindSpeed_AGL-10m_RLatLon0.09_PT084H.grib2 2026-05-08 21:05 1.0M
20260508T18Z_MSC_RDPS_WindSpeed_AGL-120m_RLatLon0.09_PT084H.grib2 2026-05-08 21:05 673K
20260508T18Z_MSC_RDPS_WindSpeed_AGL-40m_RLatLon0.09_PT084H.grib2 2026-05-08 21:05 676K
20260508T18Z_MSC_RDPS_WindSpeed_AGL-80m_RLatLon0.09_PT084H.grib2 2026-05-08 21:05 674K
20260508T18Z_MSC_RDPS_WindSpeed_IsbL-0001_RLatLon0.09_PT084H.grib2 2026-05-08 21:05 250K
20260508T18Z_MSC_RDPS_WindSpeed_IsbL-0005_RLatLon0.09_PT084H.grib2 2026-05-08 21:05 342K
20260508T18Z_MSC_RDPS_WindSpeed_IsbL-0010_RLatLon0.09_PT084H.grib2 2026-05-08 21:05 358K
20260508T18Z_MSC_RDPS_WindSpeed_IsbL-0020_RLatLon0.09_PT084H.grib2 2026-05-08 21:05 326K
20260508T18Z_MSC_RDPS_WindSpeed_IsbL-0030_RLatLon0.09_PT084H.grib2 2026-05-08 21:05 322K
20260508T18Z_MSC_RDPS_WindSpeed_IsbL-0050_RLatLon0.09_PT084H.grib2 2026-05-08 21:05 445K
20260508T18Z_MSC_RDPS_WindSpeed_IsbL-0100_RLatLon0.09_PT084H.grib2 2026-05-08 21:05 442K
20260508T18Z_MSC_RDPS_WindSpeed_IsbL-0150_RLatLon0.09_PT084H.grib2 2026-05-08 21:05 367K
20260508T18Z_MSC_RDPS_WindSpeed_IsbL-0175_RLatLon0.09_PT084H.grib2 2026-05-08 21:05 393K
20260508T18Z_MSC_RDPS_WindSpeed_IsbL-0200_RLatLon0.09_PT084H.grib2 2026-05-08 21:05 430K
20260508T18Z_MSC_RDPS_WindSpeed_IsbL-0225_RLatLon0.09_PT084H.grib2 2026-05-08 21:05 441K
20260508T18Z_MSC_RDPS_WindSpeed_IsbL-0250_RLatLon0.09_PT084H.grib2 2026-05-08 21:05 447K
20260508T18Z_MSC_RDPS_WindSpeed_IsbL-0275_RLatLon0.09_PT084H.grib2 2026-05-08 21:05 467K
20260508T18Z_MSC_RDPS_WindSpeed_IsbL-0300_RLatLon0.09_PT084H.grib2 2026-05-08 21:05 464K
20260508T18Z_MSC_RDPS_WindSpeed_IsbL-0350_RLatLon0.09_PT084H.grib2 2026-05-08 21:05 475K
20260508T18Z_MSC_RDPS_WindSpeed_IsbL-0400_RLatLon0.09_PT084H.grib2 2026-05-08 21:05 459K
20260508T18Z_MSC_RDPS_WindSpeed_IsbL-0450_RLatLon0.09_PT084H.grib2 2026-05-08 21:05 462K
20260508T18Z_MSC_RDPS_WindSpeed_IsbL-0500_RLatLon0.09_PT084H.grib2 2026-05-08 21:05 463K
20260508T18Z_MSC_RDPS_WindSpeed_IsbL-0550_RLatLon0.09_PT084H.grib2 2026-05-08 21:05 584K
20260508T18Z_MSC_RDPS_WindSpeed_IsbL-0600_RLatLon0.09_PT084H.grib2 2026-05-08 21:05 592K
20260508T18Z_MSC_RDPS_WindSpeed_IsbL-0650_RLatLon0.09_PT084H.grib2 2026-05-08 21:05 611K
20260508T18Z_MSC_RDPS_WindSpeed_IsbL-0700_RLatLon0.09_PT084H.grib2 2026-05-08 21:05 637K
20260508T18Z_MSC_RDPS_WindSpeed_IsbL-0750_RLatLon0.09_PT084H.grib2 2026-05-08 21:05 712K
20260508T18Z_MSC_RDPS_WindSpeed_IsbL-0800_RLatLon0.09_PT084H.grib2 2026-05-08 21:05 767K
20260508T18Z_MSC_RDPS_WindSpeed_IsbL-0850_RLatLon0.09_PT084H.grib2 2026-05-08 21:05 821K
20260508T18Z_MSC_RDPS_WindSpeed_IsbL-0875_RLatLon0.09_PT084H.grib2 2026-05-08 21:05 833K
20260508T18Z_MSC_RDPS_WindSpeed_IsbL-0900_RLatLon0.09_PT084H.grib2 2026-05-08 21:05 848K
20260508T18Z_MSC_RDPS_WindSpeed_IsbL-0925_RLatLon0.09_PT084H.grib2 2026-05-08 21:05 865K
20260508T18Z_MSC_RDPS_WindSpeed_IsbL-0950_RLatLon0.09_PT084H.grib2 2026-05-08 21:05 868K
20260508T18Z_MSC_RDPS_WindSpeed_IsbL-0970_RLatLon0.09_PT084H.grib2 2026-05-08 21:05 867K
20260508T18Z_MSC_RDPS_WindSpeed_IsbL-0985_RLatLon0.09_PT084H.grib2 2026-05-08 21:05 861K
20260508T18Z_MSC_RDPS_WindSpeed_IsbL-1000_RLatLon0.09_PT084H.grib2 2026-05-08 21:05 854K
20260508T18Z_MSC_RDPS_WindSpeed_IsbL-1015_RLatLon0.09_PT084H.grib2 2026-05-08 21:05 1.0M
20260508T18Z_MSC_RDPS_WindU_AGL-10m_RLatLon0.09_PT084H.grib2 2026-05-08 21:05 415K
20260508T18Z_MSC_RDPS_WindU_AGL-120m_RLatLon0.09_PT084H.grib2 2026-05-08 21:05 537K
20260508T18Z_MSC_RDPS_WindU_AGL-40m_RLatLon0.09_PT084H.grib2 2026-05-08 21:05 541K
20260508T18Z_MSC_RDPS_WindU_AGL-80m_RLatLon0.09_PT084H.grib2 2026-05-08 21:05 539K
20260508T18Z_MSC_RDPS_WindU_IsbL-0001_RLatLon0.09_PT084H.grib2 2026-05-08 21:05 289K
20260508T18Z_MSC_RDPS_WindU_IsbL-0005_RLatLon0.09_PT084H.grib2 2026-05-08 21:05 283K
20260508T18Z_MSC_RDPS_WindU_IsbL-0010_RLatLon0.09_PT084H.grib2 2026-05-08 21:05 296K
20260508T18Z_MSC_RDPS_WindU_IsbL-0020_RLatLon0.09_PT084H.grib2 2026-05-08 21:05 355K
20260508T18Z_MSC_RDPS_WindU_IsbL-0030_RLatLon0.09_PT084H.grib2 2026-05-08 21:05 352K
20260508T18Z_MSC_RDPS_WindU_IsbL-0050_RLatLon0.09_PT084H.grib2 2026-05-08 21:05 339K
20260508T18Z_MSC_RDPS_WindU_IsbL-0100_RLatLon0.09_PT084H.grib2 2026-05-08 21:05 426K
20260508T18Z_MSC_RDPS_WindU_IsbL-0150_RLatLon0.09_PT084H.grib2 2026-05-08 21:05 386K
20260508T18Z_MSC_RDPS_WindU_IsbL-0175_RLatLon0.09_PT084H.grib2 2026-05-08 21:05 410K
20260508T18Z_MSC_RDPS_WindU_IsbL-0200_RLatLon0.09_PT084H.grib2 2026-05-08 21:05 425K
20260508T18Z_MSC_RDPS_WindU_IsbL-0225_RLatLon0.09_PT084H.grib2 2026-05-08 21:05 434K
20260508T18Z_MSC_RDPS_WindU_IsbL-0250_RLatLon0.09_PT084H.grib2 2026-05-08 21:05 437K
20260508T18Z_MSC_RDPS_WindU_IsbL-0275_RLatLon0.09_PT084H.grib2 2026-05-08 21:05 354K
20260508T18Z_MSC_RDPS_WindU_IsbL-0300_RLatLon0.09_PT084H.grib2 2026-05-08 21:05 351K
20260508T18Z_MSC_RDPS_WindU_IsbL-0350_RLatLon0.09_PT084H.grib2 2026-05-08 21:05 359K
20260508T18Z_MSC_RDPS_WindU_IsbL-0400_RLatLon0.09_PT084H.grib2 2026-05-08 21:05 463K
20260508T18Z_MSC_RDPS_WindU_IsbL-0450_RLatLon0.09_PT084H.grib2 2026-05-08 21:05 467K
20260508T18Z_MSC_RDPS_WindU_IsbL-0500_RLatLon0.09_PT084H.grib2 2026-05-08 21:05 469K
20260508T18Z_MSC_RDPS_WindU_IsbL-0550_RLatLon0.09_PT084H.grib2 2026-05-08 21:05 472K
20260508T18Z_MSC_RDPS_WindU_IsbL-0600_RLatLon0.09_PT084H.grib2 2026-05-08 21:05 479K
20260508T18Z_MSC_RDPS_WindU_IsbL-0650_RLatLon0.09_PT084H.grib2 2026-05-08 21:05 481K
20260508T18Z_MSC_RDPS_WindU_IsbL-0700_RLatLon0.09_PT084H.grib2 2026-05-08 21:05 505K
20260508T18Z_MSC_RDPS_WindU_IsbL-0750_RLatLon0.09_PT084H.grib2 2026-05-08 21:05 533K
20260508T18Z_MSC_RDPS_WindU_IsbL-0800_RLatLon0.09_PT084H.grib2 2026-05-08 21:05 580K
20260508T18Z_MSC_RDPS_WindU_IsbL-0850_RLatLon0.09_PT084H.grib2 2026-05-08 21:05 628K
20260508T18Z_MSC_RDPS_WindU_IsbL-0875_RLatLon0.09_PT084H.grib2 2026-05-08 21:05 642K
20260508T18Z_MSC_RDPS_WindU_IsbL-0900_RLatLon0.09_PT084H.grib2 2026-05-08 21:05 792K
20260508T18Z_MSC_RDPS_WindU_IsbL-0925_RLatLon0.09_PT084H.grib2 2026-05-08 21:05 805K
20260508T18Z_MSC_RDPS_WindU_IsbL-0950_RLatLon0.09_PT084H.grib2 2026-05-08 21:05 805K
20260508T18Z_MSC_RDPS_WindU_IsbL-0970_RLatLon0.09_PT084H.grib2 2026-05-08 21:05 801K
20260508T18Z_MSC_RDPS_WindU_IsbL-0985_RLatLon0.09_PT084H.grib2 2026-05-08 21:05 840K
20260508T18Z_MSC_RDPS_WindU_IsbL-1000_RLatLon0.09_PT084H.grib2 2026-05-08 21:05 834K
20260508T18Z_MSC_RDPS_WindU_IsbL-1015_RLatLon0.09_PT084H.grib2 2026-05-08 21:05 822K
20260508T18Z_MSC_RDPS_WindV_AGL-10m_RLatLon0.09_PT084H.grib2 2026-05-08 21:05 433K
20260508T18Z_MSC_RDPS_WindV_AGL-120m_RLatLon0.09_PT084H.grib2 2026-05-08 21:05 537K
20260508T18Z_MSC_RDPS_WindV_AGL-40m_RLatLon0.09_PT084H.grib2 2026-05-08 21:05 540K
20260508T18Z_MSC_RDPS_WindV_AGL-80m_RLatLon0.09_PT084H.grib2 2026-05-08 21:05 538K
20260508T18Z_MSC_RDPS_WindV_IsbL-0001_RLatLon0.09_PT084H.grib2 2026-05-08 21:05 243K
20260508T18Z_MSC_RDPS_WindV_IsbL-0005_RLatLon0.09_PT084H.grib2 2026-05-08 21:05 284K
20260508T18Z_MSC_RDPS_WindV_IsbL-0010_RLatLon0.09_PT084H.grib2 2026-05-08 21:05 388K
20260508T18Z_MSC_RDPS_WindV_IsbL-0020_RLatLon0.09_PT084H.grib2 2026-05-08 21:05 358K
20260508T18Z_MSC_RDPS_WindV_IsbL-0030_RLatLon0.09_PT084H.grib2 2026-05-08 21:05 316K
20260508T18Z_MSC_RDPS_WindV_IsbL-0050_RLatLon0.09_PT084H.grib2 2026-05-08 21:05 339K
20260508T18Z_MSC_RDPS_WindV_IsbL-0100_RLatLon0.09_PT084H.grib2 2026-05-08 21:05 420K
20260508T18Z_MSC_RDPS_WindV_IsbL-0150_RLatLon0.09_PT084H.grib2 2026-05-08 21:05 359K
20260508T18Z_MSC_RDPS_WindV_IsbL-0175_RLatLon0.09_PT084H.grib2 2026-05-08 21:05 407K
20260508T18Z_MSC_RDPS_WindV_IsbL-0200_RLatLon0.09_PT084H.grib2 2026-05-08 21:05 423K
20260508T18Z_MSC_RDPS_WindV_IsbL-0225_RLatLon0.09_PT084H.grib2 2026-05-08 21:05 334K
20260508T18Z_MSC_RDPS_WindV_IsbL-0250_RLatLon0.09_PT084H.grib2 2026-05-08 21:05 337K
20260508T18Z_MSC_RDPS_WindV_IsbL-0275_RLatLon0.09_PT084H.grib2 2026-05-08 21:05 353K
20260508T18Z_MSC_RDPS_WindV_IsbL-0300_RLatLon0.09_PT084H.grib2 2026-05-08 21:05 350K
20260508T18Z_MSC_RDPS_WindV_IsbL-0350_RLatLon0.09_PT084H.grib2 2026-05-08 21:05 358K
20260508T18Z_MSC_RDPS_WindV_IsbL-0400_RLatLon0.09_PT084H.grib2 2026-05-08 21:05 463K
20260508T18Z_MSC_RDPS_WindV_IsbL-0450_RLatLon0.09_PT084H.grib2 2026-05-08 21:05 465K
20260508T18Z_MSC_RDPS_WindV_IsbL-0500_RLatLon0.09_PT084H.grib2 2026-05-08 21:05 468K
20260508T18Z_MSC_RDPS_WindV_IsbL-0550_RLatLon0.09_PT084H.grib2 2026-05-08 21:05 469K
20260508T18Z_MSC_RDPS_WindV_IsbL-0600_RLatLon0.09_PT084H.grib2 2026-05-08 21:05 476K
20260508T18Z_MSC_RDPS_WindV_IsbL-0650_RLatLon0.09_PT084H.grib2 2026-05-08 21:05 494K
20260508T18Z_MSC_RDPS_WindV_IsbL-0700_RLatLon0.09_PT084H.grib2 2026-05-08 21:05 501K
20260508T18Z_MSC_RDPS_WindV_IsbL-0750_RLatLon0.09_PT084H.grib2 2026-05-08 21:05 528K
20260508T18Z_MSC_RDPS_WindV_IsbL-0800_RLatLon0.09_PT084H.grib2 2026-05-08 21:05 577K
20260508T18Z_MSC_RDPS_WindV_IsbL-0850_RLatLon0.09_PT084H.grib2 2026-05-08 21:05 624K
20260508T18Z_MSC_RDPS_WindV_IsbL-0875_RLatLon0.09_PT084H.grib2 2026-05-08 21:05 640K
20260508T18Z_MSC_RDPS_WindV_IsbL-0900_RLatLon0.09_PT084H.grib2 2026-05-08 21:05 651K
20260508T18Z_MSC_RDPS_WindV_IsbL-0925_RLatLon0.09_PT084H.grib2 2026-05-08 21:05 663K
20260508T18Z_MSC_RDPS_WindV_IsbL-0950_RLatLon0.09_PT084H.grib2 2026-05-08 21:05 661K
20260508T18Z_MSC_RDPS_WindV_IsbL-0970_RLatLon0.09_PT084H.grib2 2026-05-08 21:05 800K
20260508T18Z_MSC_RDPS_WindV_IsbL-0985_RLatLon0.09_PT084H.grib2 2026-05-08 21:05 794K
20260508T18Z_MSC_RDPS_WindV_IsbL-1000_RLatLon0.09_PT084H.grib2 2026-05-08 21:05 789K
20260508T18Z_MSC_RDPS_WindV_IsbL-1015_RLatLon0.09_PT084H.grib2 2026-05-08 21:05 828K